Total_Precipitation_Accumulation
0.00 0.00 0.01 0.01 0.01 0.00 0.01 0.03 0.04 0.04 0.04 0.03 0.04 0.03 0.04 0.04 0.03 0.04 0.07 0.06 0.03 0.01 0.01 0.01 0.02 0.04 0.04 0.08 0.08 0.10 0.15 0.19 0.15 0.15 0.17 0.15 0.11 0.17 0.32 0.30 0.07 0.03 0.09
0.00 0.00 0.00 0.00 0.00 0.00 0.02 0.06 0.06 0.05 0.05 0.04 0.04 0.05 0.08 0.06 0.06 0.06 0.04 0.03 0.01 0.01 0.02 0.02 0.04 0.03 0.03 0.07 0.09 0.10 0.15 0.16 0.15 0.16 0.20 0.17 0.15 0.26 0.37 0.30 0.13 0.07 0.10
0.00 0.00 0.00 0.00 0.00 0.01 0.03 0.06 0.08 0.08 0.05 0.08 0.09 0.10 0.13 0.09 0.06 0.03 0.01 0.01 0.00 0.02 0.06 0.06 0.05 0.02 0.02 0.04 0.09 0.12 0.11 0.11 0.13 0.15 0.16 0.13 0.12 0.18 0.26 0.28 0.15 0.13 0.10
0.00 0.00 0.00 0.00 0.01 0.02 0.06 0.09 0.11 0.11 0.07 0.09 0.09 0.09 0.10 0.10 0.05 0.06 0.08 0.02 0.01 0.01 0.02 0.03 0.02 0.01 0.02 0.05 0.10 0.10 0.09 0.12 0.15 0.12 0.05 0.02 0.03 0.09 0.19 0.32 0.24 0.17 0.12
0.00 0.01 0.02 0.04 0.03 0.04 0.08 0.16 0.18 0.16 0.11 0.05 0.04 0.05 0.05 0.05 0.05 0.12 0.05 0.01 0.01 0.02 0.02 0.03 0.03 0.02 0.04 0.06 0.07 0.07 0.10 0.16 0.17 0.08 0.05 0.01 0.03 0.12 0.18 0.30 0.29 0.20 0.12
0.00 0.02 0.07 0.15 0.10 0.10 0.11 0.20 0.20 0.16 0.15 0.05 0.02 0.02 0.03 0.02 0.05 0.06 0.03 0.02 0.01 0.01 0.02 0.02 0.02 0.01 0.02 0.04 0.05 0.07 0.10 0.11 0.07 0.07 0.06 0.04 0.06 0.15 0.19 0.25 0.21 0.13 0.08
0.01 0.02 0.09 0.22 0.16 0.11 0.11 0.15 0.13 0.14 0.17 0.08 0.02 0.02 0.02 0.03 0.05 0.05 0.05 0.02 0.01 0.01 0.01 0.01 0.00 0.00 0.00 0.01 0.02 0.05 0.07 0.04 0.03 0.04 0.03 0.06 0.10 0.14 0.11 0.15 0.19 0.16 0.14
0.02 0.02 0.06 0.15 0.12 0.08 0.12 0.14 0.14 0.15 0.14 0.05 0.03 0.03 0.03 0.04 0.05 0.05 0.05 0.01 0.00 0.01 0.02 0.02 0.00 0.00 0.00 0.01 0.01 0.02 0.03 0.01 0.01 0.02 0.03 0.06 0.14 0.14 0.08 0.10 0.15 0.13 0.16
0.05 0.04 0.05 0.05 0.04 0.06 0.11 0.11 0.16 0.20 0.13 0.05 0.05 0.05 0.05 0.04 0.04 0.05 0.03 0.00 0.00 0.01 0.02 0.01 0.00 0.00 0.00 0.00 0.01 0.01 0.01 0.00 0.00 0.01 0.03 0.06 0.11 0.07 0.05 0.06 0.08 0.11 0.15
0.05 0.02 0.02 0.01 0.02 0.05 0.06 0.08 0.16 0.21 0.14 0.08 0.07 0.07 0.07 0.04 0.03 0.03 0.01 0.00 0.00 0.00 0.00 0.00 0.00 0.00 0.00 0.00 0.01 0.01 0.00 0.00 0.00 0.00 0.01 0.03 0.04 0.01 0.02 0.03 0.04 0.05 0.07
0.06 0.03 0.01 0.01 0.01 0.03 0.05 0.08 0.12 0.19 0.15 0.09 0.08 0.10 0.07 0.03 0.04 0.01 0.00 0.00 0.00 0.00 0.00 0.00 0.00 0.00 0.00 0.00 0.01 0.01 0.00 0.00 0.00 0.00 0.00 0.02 0.02 0.00 0.01 0.01 0.01 0.01 0.02
0.04 0.04 0.03 0.01 0.00 0.01 0.03 0.07 0.08 0.05 0.05 0.04 0.04 0.04 0.02 0.04 0.04 0.00 0.00 0.00 0.00 0.00 0.00 0.01 0.00 0.00 0.00 0.00 0.00 0.00 0.00 0.00 0.00 0.00 0.00 0.00 0.00 0.00 0.00 0.01 0.00 0.00 0.00
0.00 0.01 0.01 0.01 0.00 0.00 0.00 0.03 0.03 0.02 0.01 0.01 0.02 0.03 0.01 0.02 0.01 0.00 0.00 0.00 0.00 0.00 0.00 0.01 0.01 0.00 0.00 0.00 0.00 0.00 0.00 0.00 0.00 0.00 0.01 0.01 0.01 0.01 0.01 0.01 0.01 0.01 0.00
0.00 0.00 0.00 0.00 0.00 0.01 0.00 0.01 0.02 0.02 0.03 0.01 0.01 0.02 0.01 0.02 0.01 0.00 0.00 0.00 0.00 0.01 0.00 0.00 0.00 0.00 0.00 0.00 0.01 0.01 0.00 0.00 0.00 0.00 0.02 0.05 0.04 0.03 0.02 0.03 0.02 0.01 0.01
0.00 0.00 0.00 0.00 0.00 0.01 0.01 0.00 0.01 0.05 0.06 0.03 0.02 0.04 0.01 0.02 0.02 0.01 0.00 0.01 0.01 0.01 0.00 0.00 0.00 0.00 0.00 0.00 0.00 0.00 0.00 0.00 0.00 0.02 0.05 0.11 0.13 0.10 0.07 0.07 0.05 0.02 0.02
0.00 0.01 0.01 0.01 0.00 0.01 0.02 0.02 0.01 0.02 0.03 0.02 0.03 0.03 0.02 0.02 0.02 0.01 0.00 0.01 0.02 0.01 0.01 0.00 0.00 0.00 0.00 0.00 0.00 0.00 0.00 0.00 0.00 0.00 0.01 0.05 0.15 0.15 0.16 0.18 0.13 0.07 0.06
0.00 0.00 0.01 0.01 0.02 0.03 0.04 0.05 0.02 0.02 0.01 0.02 0.03 0.05 0.04 0.04 0.05 0.04 0.02 0.01 0.02 0.02 0.03 0.03 0.01 0.00 0.00 0.00 0.00 0.00 0.00 0.00 0.00 0.00 0.00 0.01 0.06 0.16 0.25 0.33 0.31 0.19 0.11
0.00 0.00 0.01 0.01 0.02 0.02 0.02 0.03 0.02 0.02 0.02 0.02 0.02 0.03 0.06 0.08 0.09 0.06 0.04 0.05 0.06 0.06 0.08 0.08 0.04 0.01 0.00 0.00 0.00 0.00 0.00 0.00 0.00 0.00 0.00 0.01 0.02 0.07 0.14 0.24 0.34 0.42 0.25
0.00 0.00 0.00 0.00 0.02 0.01 0.01 0.02 0.03 0.05 0.10 0.15 0.11 0.06 0.11 0.14 0.11 0.08 0.11 0.14 0.15 0.15 0.11 0.09 0.07 0.05 0.02 0.01 0.00 0.00 0.00 0.00 0.00 0.00 0.00 0.00 0.00 0.01 0.02 0.05 0.14 0.20 0.15
0.00 0.00 0.00 0.00 0.01 0.02 0.01 0.02 0.07 0.09 0.15 0.28 0.29 0.21 0.20 0.21 0.16 0.12 0.13 0.16 0.19 0.21 0.15 0.14 0.14 0.08 0.05 0.03 0.01 0.00 0.00 0.00 0.00 0.00 0.00 0.00 0.00 0.00 0.00 0.00 0.00 0.01 0.03
0.00 0.00 0.00 0.01 0.02 0.02 0.02 0.02 0.05 0.08 0.14 0.24 0.22 0.25 0.25 0.27 0.21 0.18 0.18 0.16 0.15 0.16 0.18 0.21 0.23 0.19 0.13 0.08 0.03 0.00 0.00 0.00 0.00 0.00 0.00 0.00 0.00 0.00 0.00 0.00 0.00 0.00 0.00
0.00 0.00 0.01 0.03 0.06 0.06 0.06 0.06 0.06 0.07 0.08 0.12 0.15 0.20 0.24 0.26 0.23 0.22 0.21 0.17 0.14 0.16 0.25 0.27 0.26 0.30 0.26 0.21 0.12 0.03 0.00 0.00 0.00 0.00 0.00 0.00 0.00 0.00 0.00 0.00 0.00 0.00 0.00
0.01 0.02 0.05 0.12 0.17 0.20 0.21 0.20 0.15 0.12 0.12 0.13 0.19 0.23 0.22 0.25 0.26 0.22 0.18 0.17 0.17 0.19 0.23 0.34 0.40 0.43 0.39 0.39 0.30 0.13 0.04 0.01 0.00 0.00 0.00 0.00 0.00 0.00 0.00 0.00 0.00 0.00 0.00
0.06 0.13 0.25 0.39 0.46 0.45 0.38 0.27 0.20 0.14 0.14 0.14 0.16 0.15 0.14 0.18 0.15 0.09 0.13 0.20 0.26 0.35 0.38 0.50 0.52 0.52 0.48 0.42 0.42 0.27 0.15 0.08 0.03 0.01 0.00 0.00 0.00 0.00 0.00 0.00 0.00 0.00 0.00
0.30 0.46 0.64 0.75 0.73 0.61 0.42 0.28 0.22 0.16 0.17 0.15 0.12 0.12 0.13 0.13 0.11 0.08 0.11 0.15 0.18 0.22 0.28 0.35 0.33 0.39 0.44 0.45 0.45 0.42 0.32 0.26 0.11 0.03 0.01 0.00 0.00 0.00 0.00 0.00 0.00 0.00 0.00
0.61 0.73 0.84 0.85 0.78 0.58 0.36 0.23 0.17 0.14 0.13 0.12 0.12 0.13 0.11 0.08 0.07 0.06 0.08 0.15 0.19 0.13 0.17 0.22 0.22 0.30 0.34 0.38 0.43 0.42 0.41 0.46 0.42 0.24 0.12 0.05 0.01 0.00 0.00 0.00 0.00 0.00 0.00